Year,Month,Day,Hour,Minute,Value (Times are PST for temperature in C)
2010,10,19,00,00,5.20
2010,10,19,00,01,5.20
2010,10,19,00,02,5.20
2010,10,19,00,03,5.20
2010,10,19,00,04,5.20
2010,10,19,00,05,5.20
2010,10,19,00,06,5.20
2010,10,19,00,07,5.20
2010,10,19,00,08,5.20
2010,10,19,00,09,5.20
2010,10,19,00,10,5.20
2010,10,19,00,11,5.20
2010,10,19,00,12,5.20
2010,10,19,00,13,5.20
2010,10,19,00,14,5.20
2010,10,19,00,15,5.20
2010,10,19,00,16,5.20
2010,10,19,00,17,5.20
2010,10,19,00,18,5.20
2010,10,19,00,19,5.20
2010,10,19,00,20,5.20
2010,10,19,00,21,5.20
2010,10,19,00,22,5.20
2010,10,19,00,23,5.20
2010,10,19,00,24,5.20
2010,10,19,00,25,5.20
2010,10,19,00,26,5.20
2010,10,19,00,27,5.20
2010,10,19,00,28,5.20
2010,10,19,00,29,5.20
2010,10,19,00,30,5.20
2010,10,19,00,31,5.20
2010,10,19,00,32,5.20
2010,10,19,00,33,5.20
2010,10,19,00,34,5.20
2010,10,19,00,35,5.20
2010,10,19,00,36,5.20
2010,10,19,00,37,5.20
2010,10,19,00,38,5.20
2010,10,19,00,39,5.20
2010,10,19,00,40,5.10
2010,10,19,00,41,5.10
2010,10,19,00,42,5.10
2010,10,19,00,43,5.10
2010,10,19,00,44,5.10
2010,10,19,00,45,5.10
2010,10,19,00,46,5.10
2010,10,19,00,47,5.10
2010,10,19,00,48,5.10
2010,10,19,00,49,5.20
2010,10,19,00,50,5.20
2010,10,19,00,51,5.20
2010,10,19,00,52,5.20
2010,10,19,00,53,5.10
2010,10,19,00,54,5.10
2010,10,19,00,55,5.20
2010,10,19,00,56,5.10
2010,10,19,00,57,5.20
2010,10,19,00,58,5.20
2010,10,19,00,59,5.20
2010,10,19,01,00,5.20
2010,10,19,01,01,5.10
2010,10,19,01,02,5.10
2010,10,19,01,03,5.10
2010,10,19,01,04,5.10
2010,10,19,01,05,5.20
2010,10,19,01,06,5.20
2010,10,19,01,07,5.20
2010,10,19,01,08,5.20
2010,10,19,01,09,5.20
2010,10,19,01,10,5.20
2010,10,19,01,11,5.20
2010,10,19,01,12,5.20
2010,10,19,01,13,5.20
2010,10,19,01,14,5.20
2010,10,19,01,15,5.20
2010,10,19,01,16,5.20
2010,10,19,01,17,5.20
2010,10,19,01,18,5.20
2010,10,19,01,19,5.20
2010,10,19,01,20,5.20
2010,10,19,01,21,5.20
2010,10,19,01,22,5.20
2010,10,19,01,23,5.20
2010,10,19,01,24,5.20
2010,10,19,01,25,5.20
2010,10,19,01,26,5.20
2010,10,19,01,27,5.20
2010,10,19,01,28,5.20
2010,10,19,01,29,5.10
2010,10,19,01,30,5.10
2010,10,19,01,31,5.10
2010,10,19,01,32,5.10
2010,10,19,01,33,5.10
2010,10,19,01,34,5.10
2010,10,19,01,35,5.10
2010,10,19,01,36,5.10
2010,10,19,01,37,5.10
2010,10,19,01,38,5.10
2010,10,19,01,39,5.20
2010,10,19,01,40,5.20
2010,10,19,01,41,5.20
2010,10,19,01,42,5.20
2010,10,19,01,43,5.20
2010,10,19,01,44,5.20
2010,10,19,01,45,5.20
2010,10,19,01,46,5.20
2010,10,19,01,47,5.20
2010,10,19,01,48,5.20
2010,10,19,01,49,5.20
2010,10,19,01,50,5.20
2010,10,19,01,51,5.20
2010,10,19,01,52,5.20
2010,10,19,01,53,5.20
2010,10,19,01,54,5.20
2010,10,19,01,55,5.20
2010,10,19,01,56,5.20
2010,10,19,01,57,5.20
2010,10,19,01,58,5.20
2010,10,19,01,59,5.20
2010,10,19,02,00,5.20
2010,10,19,02,01,5.20
2010,10,19,02,02,5.20
2010,10,19,02,03,5.20
2010,10,19,02,04,5.20
2010,10,19,02,05,5.20
2010,10,19,02,06,5.20
2010,10,19,02,07,5.20
2010,10,19,02,08,5.20
2010,10,19,02,09,5.20
2010,10,19,02,10,5.20
2010,10,19,02,11,5.20
2010,10,19,02,12,5.20
2010,10,19,02,13,5.20
2010,10,19,02,14,5.20
2010,10,19,02,15,5.20
2010,10,19,02,16,5.20
2010,10,19,02,17,5.10
2010,10,19,02,18,5.10
2010,10,19,02,19,5.10
2010,10,19,02,20,5.10
2010,10,19,02,21,5.10
2010,10,19,02,22,5.10
2010,10,19,02,23,5.10
2010,10,19,02,24,5.10
2010,10,19,02,25,5.10
2010,10,19,02,26,5.10
2010,10,19,02,27,5.10
2010,10,19,02,28,5.10
2010,10,19,02,29,5.00
2010,10,19,02,30,5.00
2010,10,19,02,31,5.00
2010,10,19,02,32,5.00
2010,10,19,02,33,5.00
2010,10,19,02,34,5.00
2010,10,19,02,35,4.90
2010,10,19,02,36,4.90
2010,10,19,02,37,4.90
2010,10,19,02,38,4.90
2010,10,19,02,39,4.90
2010,10,19,02,40,4.90
2010,10,19,02,41,4.90
2010,10,19,02,42,4.90
2010,10,19,02,43,4.90
2010,10,19,02,44,4.90
2010,10,19,02,45,4.90
2010,10,19,02,46,4.90
2010,10,19,02,47,4.80
2010,10,19,02,48,4.80
2010,10,19,02,49,4.80
2010,10,19,02,50,4.80
2010,10,19,02,51,4.80
2010,10,19,02,52,4.80
2010,10,19,02,53,4.80
2010,10,19,02,54,4.80
2010,10,19,02,55,4.80
2010,10,19,02,56,4.80
2010,10,19,02,57,4.80
2010,10,19,02,58,4.80
2010,10,19,02,59,4.80
2010,10,19,03,00,4.80
2010,10,19,03,01,4.80
2010,10,19,03,02,4.80
2010,10,19,03,03,4.80
2010,10,19,03,04,4.80
2010,10,19,03,05,4.80
2010,10,19,03,06,4.80
2010,10,19,03,07,4.80
2010,10,19,03,08,4.80
2010,10,19,03,09,4.80
2010,10,19,03,10,4.80
2010,10,19,03,11,4.80
2010,10,19,03,12,4.80
2010,10,19,03,13,4.80
2010,10,19,03,14,4.80
2010,10,19,03,15,4.90
2010,10,19,03,16,4.90
2010,10,19,03,17,4.90
2010,10,19,03,18,5.00
2010,10,19,03,19,5.10
2010,10,19,03,20,5.10
2010,10,19,03,21,5.10
2010,10,19,03,22,5.20
2010,10,19,03,23,5.20
2010,10,19,03,24,5.20
2010,10,19,03,25,5.30
2010,10,19,03,26,5.30
2010,10,19,03,27,5.30
2010,10,19,03,28,5.30
2010,10,19,03,29,5.30
2010,10,19,03,30,5.30
2010,10,19,03,31,5.40
2010,10,19,03,32,5.40
2010,10,19,03,33,5.40
2010,10,19,03,34,5.40
2010,10,19,03,35,5.40
2010,10,19,03,36,5.40
2010,10,19,03,37,5.50
2010,10,19,03,38,5.50
2010,10,19,03,39,5.50
2010,10,19,03,40,5.50
2010,10,19,03,41,5.50
2010,10,19,03,42,5.50
2010,10,19,03,43,5.50
2010,10,19,03,44,5.40
2010,10,19,03,45,5.40
2010,10,19,03,46,5.40
2010,10,19,03,47,5.40
2010,10,19,03,48,5.40
2010,10,19,03,49,5.40
2010,10,19,03,50,5.40
2010,10,19,03,51,5.40
2010,10,19,03,52,5.40
2010,10,19,03,53,5.40
2010,10,19,03,54,5.40
2010,10,19,03,55,5.40
2010,10,19,03,56,5.40
2010,10,19,03,57,5.40
2010,10,19,03,58,5.40
2010,10,19,03,59,5.40
2010,10,19,04,00,5.40
2010,10,19,04,01,5.40
2010,10,19,04,02,5.40
2010,10,19,04,03,5.40
2010,10,19,04,04,5.40
2010,10,19,04,05,5.30
2010,10,19,04,06,5.30
2010,10,19,04,07,5.30
2010,10,19,04,08,5.30
2010,10,19,04,09,5.30
2010,10,19,04,10,5.30
2010,10,19,04,11,5.30
2010,10,19,04,12,5.40
2010,10,19,04,13,5.40
2010,10,19,04,14,5.50
2010,10,19,04,15,5.50
2010,10,19,04,16,5.60
2010,10,19,04,17,5.60
2010,10,19,04,18,5.70
2010,10,19,04,19,5.70
2010,10,19,04,20,5.70
2010,10,19,04,21,5.70
2010,10,19,04,22,5.70
2010,10,19,04,23,5.70
2010,10,19,04,24,5.70
2010,10,19,04,25,5.70
2010,10,19,04,26,5.70
2010,10,19,04,27,5.70
2010,10,19,04,28,5.70
2010,10,19,04,29,5.70
2010,10,19,04,30,5.70
2010,10,19,04,31,5.70
2010,10,19,04,32,5.70
2010,10,19,04,33,5.70
2010,10,19,04,34,5.70
2010,10,19,04,35,5.80
2010,10,19,04,36,5.80
2010,10,19,04,37,5.80
2010,10,19,04,38,5.80
2010,10,19,04,39,5.80
2010,10,19,04,40,5.80
2010,10,19,04,41,5.80
2010,10,19,04,42,5.80
2010,10,19,04,43,5.80
2010,10,19,04,44,5.80
2010,10,19,04,45,5.80
2010,10,19,04,46,5.80
2010,10,19,04,47,5.80
2010,10,19,04,48,5.80
2010,10,19,04,49,5.80
2010,10,19,04,50,5.80
2010,10,19,04,51,5.80
2010,10,19,04,52,5.80
2010,10,19,04,53,5.80
2010,10,19,04,54,5.80
2010,10,19,04,55,5.90
2010,10,19,04,56,5.90
2010,10,19,04,57,5.90
2010,10,19,04,58,5.90
2010,10,19,04,59,5.90
2010,10,19,05,00,5.90
2010,10,19,05,01,5.90
2010,10,19,05,02,5.90
2010,10,19,05,03,5.90
2010,10,19,05,04,5.90
2010,10,19,05,05,5.90
2010,10,19,05,06,6.00
2010,10,19,05,07,6.00
2010,10,19,05,08,6.00
2010,10,19,05,09,6.00
2010,10,19,05,10,6.00
2010,10,19,05,11,6.00
2010,10,19,05,12,6.00
2010,10,19,05,13,6.00
2010,10,19,05,14,6.00
2010,10,19,05,15,6.00
2010,10,19,05,16,6.10
2010,10,19,05,17,6.10
2010,10,19,05,18,6.10
2010,10,19,05,19,6.10
2010,10,19,05,20,6.10
2010,10,19,05,21,6.10
2010,10,19,05,22,6.10
2010,10,19,05,23,6.10
2010,10,19,05,24,6.10
2010,10,19,05,25,6.10
2010,10,19,05,26,6.10
2010,10,19,05,27,6.10
2010,10,19,05,28,6.10
2010,10,19,05,29,6.10
2010,10,19,05,30,6.20
2010,10,19,05,31,6.20
2010,10,19,05,32,6.20
2010,10,19,05,33,6.20
2010,10,19,05,34,6.20
2010,10,19,05,35,6.20
2010,10,19,05,36,6.20
2010,10,19,05,37,6.20
2010,10,19,05,38,6.20
2010,10,19,05,39,6.20
2010,10,19,05,40,6.20
2010,10,19,05,41,6.20
2010,10,19,05,42,6.20
2010,10,19,05,43,6.20
2010,10,19,05,44,6.20
2010,10,19,05,45,6.20
2010,10,19,05,46,6.20
2010,10,19,05,47,6.20
2010,10,19,05,48,6.20
2010,10,19,05,49,6.20
2010,10,19,05,50,6.20
2010,10,19,05,51,6.20
2010,10,19,05,52,6.20
2010,10,19,05,53,6.20
2010,10,19,05,54,6.20
2010,10,19,05,55,6.20
2010,10,19,05,56,6.20
2010,10,19,05,57,6.20
2010,10,19,05,58,6.20
2010,10,19,05,59,6.20
2010,10,19,06,00,6.20
2010,10,19,06,01,6.20
2010,10,19,06,02,6.20
2010,10,19,06,03,6.20
2010,10,19,06,04,6.20
2010,10,19,06,05,6.20
2010,10,19,06,06,6.20
2010,10,19,06,07,6.20
2010,10,19,06,08,6.20
2010,10,19,06,09,6.20
2010,10,19,06,10,6.20
2010,10,19,06,11,6.20
2010,10,19,06,12,6.20
2010,10,19,06,13,6.20
2010,10,19,06,14,6.20
2010,10,19,06,15,6.20
2010,10,19,06,16,6.20
2010,10,19,06,17,6.20
2010,10,19,06,18,6.20
2010,10,19,06,19,6.20
2010,10,19,06,20,6.20
2010,10,19,06,21,6.20
2010,10,19,06,22,6.20
2010,10,19,06,23,6.20
2010,10,19,06,24,6.20
2010,10,19,06,25,6.20
2010,10,19,06,26,6.20
2010,10,19,06,27,6.10
2010,10,19,06,28,6.20
2010,10,19,06,29,6.20
2010,10,19,06,30,6.20
2010,10,19,06,31,6.20
2010,10,19,06,32,6.20
2010,10,19,06,33,6.20
2010,10,19,06,34,6.20
2010,10,19,06,35,6.20
2010,10,19,06,36,6.20
2010,10,19,06,37,6.20
2010,10,19,06,38,6.20
2010,10,19,06,39,6.20
2010,10,19,06,40,6.20
2010,10,19,06,41,6.20
2010,10,19,06,42,6.20
2010,10,19,06,43,6.20
2010,10,19,06,44,6.20
2010,10,19,06,45,6.20
2010,10,19,06,46,6.20
2010,10,19,06,47,6.20
2010,10,19,06,48,6.20
2010,10,19,06,49,6.20
2010,10,19,06,50,6.20
2010,10,19,06,51,6.10
2010,10,19,06,52,6.10
2010,10,19,06,53,6.10
2010,10,19,06,54,6.10
2010,10,19,06,55,6.10
2010,10,19,06,56,6.10
2010,10,19,06,57,6.10
2010,10,19,06,58,6.00
2010,10,19,06,59,6.00
2010,10,19,07,00,6.00
2010,10,19,07,01,6.00
2010,10,19,07,02,6.00
2010,10,19,07,03,6.00
2010,10,19,07,04,6.00
2010,10,19,07,05,6.00
2010,10,19,07,06,6.00
2010,10,19,07,07,6.00
2010,10,19,07,08,6.00
2010,10,19,07,09,6.00
2010,10,19,07,10,6.00
2010,10,19,07,11,6.00
2010,10,19,07,12,6.00
2010,10,19,07,13,6.00
2010,10,19,07,14,5.90
2010,10,19,07,15,5.90
2010,10,19,07,16,5.90
2010,10,19,07,17,5.90
2010,10,19,07,18,5.90
2010,10,19,07,19,5.90
2010,10,19,07,20,5.90
2010,10,19,07,21,5.90
2010,10,19,07,22,5.90
2010,10,19,07,23,5.80
2010,10,19,07,24,5.80
2010,10,19,07,25,5.80
2010,10,19,07,26,5.80
2010,10,19,07,27,5.80
2010,10,19,07,28,5.80
2010,10,19,07,29,5.80
2010,10,19,07,30,5.80
2010,10,19,07,31,5.80
2010,10,19,07,32,5.80
2010,10,19,07,33,5.80
2010,10,19,07,34,5.70
2010,10,19,07,35,5.70
2010,10,19,07,36,5.70
2010,10,19,07,37,5.70
2010,10,19,07,38,5.70
2010,10,19,07,39,5.70
2010,10,19,07,40,5.70
2010,10,19,07,41,5.70
2010,10,19,07,42,5.60
2010,10,19,07,43,5.60
2010,10,19,07,44,5.60
2010,10,19,07,45,5.60
2010,10,19,07,46,5.60
2010,10,19,07,47,5.60
2010,10,19,07,48,5.60
2010,10,19,07,49,5.60
2010,10,19,07,50,5.60
2010,10,19,07,51,5.60
2010,10,19,07,52,5.60
2010,10,19,07,53,5.50
2010,10,19,07,54,5.50
2010,10,19,07,55,5.50
2010,10,19,07,56,5.50
2010,10,19,07,57,5.50
2010,10,19,07,58,5.50
2010,10,19,07,59,5.50
2010,10,19,08,00,5.50
2010,10,19,08,01,5.50
2010,10,19,08,02,5.40
2010,10,19,08,03,5.40
2010,10,19,08,04,5.40
2010,10,19,08,05,5.40
2010,10,19,08,06,5.40
2010,10,19,08,07,5.40
2010,10,19,08,08,5.40
2010,10,19,08,09,5.40
2010,10,19,08,10,5.40
2010,10,19,08,11,5.40
2010,10,19,08,12,5.40
2010,10,19,08,13,5.40
2010,10,19,08,14,5.40
2010,10,19,08,15,5.30
2010,10,19,08,16,5.30
2010,10,19,08,17,5.30
2010,10,19,08,18,5.30
2010,10,19,08,19,5.30
2010,10,19,08,20,5.30
2010,10,19,08,21,5.30
2010,10,19,08,22,5.30
2010,10,19,08,23,5.30
2010,10,19,08,24,5.30
2010,10,19,08,25,5.30
2010,10,19,08,26,5.30
2010,10,19,08,27,5.30
2010,10,19,08,28,5.30
2010,10,19,08,29,5.30
2010,10,19,08,30,5.30
2010,10,19,08,31,5.30
2010,10,19,08,32,5.30
2010,10,19,08,33,5.30
2010,10,19,08,34,5.30
2010,10,19,08,35,5.30
2010,10,19,08,36,5.30
2010,10,19,08,37,5.30
2010,10,19,08,38,5.30
2010,10,19,08,39,5.30
2010,10,19,08,40,5.30
2010,10,19,08,41,5.30
2010,10,19,08,42,5.30
2010,10,19,08,43,5.30
2010,10,19,08,44,5.30
2010,10,19,08,45,5.40
2010,10,19,08,46,5.40
2010,10,19,08,47,5.40
2010,10,19,08,48,5.40
2010,10,19,08,49,5.50
2010,10,19,08,50,5.50
2010,10,19,08,51,5.60
2010,10,19,08,52,5.60
2010,10,19,08,53,5.70
2010,10,19,08,54,5.70
2010,10,19,08,55,5.80
2010,10,19,08,56,5.90
2010,10,19,08,57,5.90
2010,10,19,08,58,6.00
2010,10,19,08,59,6.10
2010,10,19,09,00,6.10
2010,10,19,09,01,6.10
2010,10,19,09,02,6.20
2010,10,19,09,03,6.20
2010,10,19,09,04,6.20
2010,10,19,09,05,6.30
2010,10,19,09,06,6.30
2010,10,19,09,07,6.30
2010,10,19,09,08,6.30
2010,10,19,09,09,6.30
2010,10,19,09,10,6.40
2010,10,19,09,11,6.40
2010,10,19,09,12,6.40
2010,10,19,09,13,6.40
2010,10,19,09,14,6.40
2010,10,19,09,15,6.40
2010,10,19,09,16,6.50
2010,10,19,09,17,6.50
2010,10,19,09,18,6.50
2010,10,19,09,19,6.50
2010,10,19,09,20,6.50
2010,10,19,09,21,6.60
2010,10,19,09,22,6.60
2010,10,19,09,23,6.60
2010,10,19,09,24,6.60
2010,10,19,09,25,6.60
2010,10,19,09,26,6.60
2010,10,19,09,27,6.70
2010,10,19,09,28,6.70
2010,10,19,09,29,6.70
2010,10,19,09,30,6.70
2010,10,19,09,31,6.80
2010,10,19,09,32,6.80
2010,10,19,09,33,6.80
2010,10,19,09,34,6.80
2010,10,19,09,35,6.80
2010,10,19,09,36,6.80
2010,10,19,09,37,6.80
2010,10,19,09,38,6.90
2010,10,19,09,39,6.90
2010,10,19,09,40,7.00
2010,10,19,09,41,7.00
2010,10,19,09,42,7.10
2010,10,19,09,43,7.10
2010,10,19,09,44,7.20
2010,10,19,09,45,7.20
2010,10,19,09,46,7.30
2010,10,19,09,47,7.30
2010,10,19,09,48,7.40
2010,10,19,09,49,7.40
2010,10,19,09,50,7.50
2010,10,19,09,51,7.60
2010,10,19,09,52,7.60
2010,10,19,09,53,7.70
2010,10,19,09,54,7.80
2010,10,19,09,55,7.90
2010,10,19,09,56,7.90
2010,10,19,09,57,8.00
2010,10,19,09,58,8.10
2010,10,19,09,59,8.20
2010,10,19,10,00,8.20
2010,10,19,10,01,8.30
2010,10,19,10,02,8.30
2010,10,19,10,03,8.40
2010,10,19,10,04,8.40
2010,10,19,10,05,8.50
2010,10,19,10,06,8.50
2010,10,19,10,07,8.60
2010,10,19,10,08,8.60
2010,10,19,10,09,8.60
2010,10,19,10,10,8.60
2010,10,19,10,11,8.70
2010,10,19,10,12,8.70
2010,10,19,10,13,8.70
2010,10,19,10,14,8.70
2010,10,19,10,15,8.80
2010,10,19,10,16,8.80
2010,10,19,10,17,8.80
2010,10,19,10,18,8.80
2010,10,19,10,19,8.80
2010,10,19,10,20,8.80
2010,10,19,10,21,8.90
2010,10,19,10,22,8.90
2010,10,19,10,23,8.90
2010,10,19,10,24,8.90
2010,10,19,10,25,8.90
2010,10,19,10,26,8.90
2010,10,19,10,27,8.90
2010,10,19,10,28,8.90
2010,10,19,10,29,8.90
2010,10,19,10,30,8.90
2010,10,19,10,31,9.00
2010,10,19,10,32,9.00
2010,10,19,10,33,9.00
2010,10,19,10,34,9.10
2010,10,19,10,35,9.10
2010,10,19,10,36,9.20
2010,10,19,10,37,9.20
2010,10,19,10,38,9.20
2010,10,19,10,39,9.30
2010,10,19,10,40,9.40
2010,10,19,10,41,9.40
2010,10,19,10,42,9.50
2010,10,19,10,43,9.60
2010,10,19,10,44,9.60
2010,10,19,10,45,9.60
2010,10,19,10,46,9.70
2010,10,19,10,47,9.80
2010,10,19,10,48,9.80
2010,10,19,10,49,9.90
2010,10,19,10,50,9.90
2010,10,19,10,51,10.00
2010,10,19,10,52,10.10
2010,10,19,10,53,10.10
2010,10,19,10,54,10.20
2010,10,19,10,55,10.20
2010,10,19,10,56,10.30
2010,10,19,10,57,10.30
2010,10,19,10,58,10.40
2010,10,19,10,59,10.50
2010,10,19,11,00,10.60
2010,10,19,11,01,10.70
2010,10,19,11,02,10.80
2010,10,19,11,03,10.80
2010,10,19,11,04,10.90
2010,10,19,11,05,11.00
2010,10,19,11,06,11.10
2010,10,19,11,07,11.10
2010,10,19,11,08,11.20
2010,10,19,11,09,11.20
2010,10,19,11,10,11.30
2010,10,19,11,11,11.30
2010,10,19,11,12,11.40
2010,10,19,11,13,11.50
2010,10,19,11,14,11.50
2010,10,19,11,15,11.60
2010,10,19,11,16,11.60
2010,10,19,11,17,11.70
2010,10,19,11,18,11.70
2010,10,19,11,19,11.70
2010,10,19,11,20,11.80
2010,10,19,11,21,11.80
2010,10,19,11,22,11.90
2010,10,19,11,23,12.00
2010,10,19,11,24,12.00
2010,10,19,11,25,12.10
2010,10,19,11,26,12.20
2010,10,19,11,27,12.20
2010,10,19,11,28,12.20
2010,10,19,11,29,12.30
2010,10,19,11,30,12.30
2010,10,19,11,31,12.30
2010,10,19,11,32,12.30
2010,10,19,11,33,12.30
2010,10,19,11,34,12.30
2010,10,19,11,35,12.40
2010,10,19,11,36,12.40
2010,10,19,11,37,12.40
2010,10,19,11,38,12.40
2010,10,19,11,39,12.50
2010,10,19,11,40,12.50
2010,10,19,11,41,12.50
2010,10,19,11,42,12.50
2010,10,19,11,43,12.50
2010,10,19,11,44,12.60
2010,10,19,11,45,12.60
2010,10,19,11,46,12.60
2010,10,19,11,47,12.60
2010,10,19,11,48,12.60
2010,10,19,11,49,12.70
2010,10,19,11,50,12.70
2010,10,19,11,51,12.70
2010,10,19,11,52,12.80
2010,10,19,11,53,12.80
2010,10,19,11,54,12.80
2010,10,19,11,55,12.90
2010,10,19,11,56,13.00
2010,10,19,11,57,13.00
2010,10,19,11,58,13.10
2010,10,19,11,59,13.10
2010,10,19,12,00,13.20
2010,10,19,12,01,13.30
2010,10,19,12,02,13.40
2010,10,19,12,03,13.50
2010,10,19,12,04,13.60
2010,10,19,12,05,13.60
2010,10,19,12,06,13.70
2010,10,19,12,07,13.80
2010,10,19,12,08,13.90
2010,10,19,12,09,14.00
2010,10,19,12,10,14.10
2010,10,19,12,11,14.20
2010,10,19,12,12,14.30
2010,10,19,12,13,14.30
2010,10,19,12,14,14.40
2010,10,19,12,15,14.50
2010,10,19,12,16,14.50
2010,10,19,12,17,14.60
2010,10,19,12,18,14.70
2010,10,19,12,19,14.70
2010,10,19,12,20,14.70
2010,10,19,12,21,14.70
2010,10,19,12,22,14.80
2010,10,19,12,23,14.80
2010,10,19,12,24,14.90
2010,10,19,12,25,14.90
2010,10,19,12,26,14.90
2010,10,19,12,27,14.80
2010,10,19,12,28,14.80
2010,10,19,12,29,14.80
2010,10,19,12,30,14.80
2010,10,19,12,31,14.70
2010,10,19,12,32,14.70
2010,10,19,12,33,14.70
2010,10,19,12,34,14.70
2010,10,19,12,35,14.70
2010,10,19,12,36,14.70
2010,10,19,12,37,14.70
2010,10,19,12,38,14.70
2010,10,19,12,39,14.80
2010,10,19,12,40,14.80
2010,10,19,12,41,14.80
2010,10,19,12,42,14.80
2010,10,19,12,43,14.80
2010,10,19,12,44,14.80
2010,10,19,12,45,14.80
2010,10,19,12,46,14.80
2010,10,19,12,47,14.80
2010,10,19,12,48,14.90
2010,10,19,12,49,14.90
2010,10,19,12,50,14.90
2010,10,19,12,51,14.90
2010,10,19,12,52,14.90
2010,10,19,12,53,14.90
2010,10,19,12,54,14.90
2010,10,19,12,55,14.90
2010,10,19,12,56,14.90
2010,10,19,12,57,14.90
2010,10,19,12,58,14.90
2010,10,19,12,59,14.80
2010,10,19,13,00,14.80
2010,10,19,13,01,14.80
2010,10,19,13,02,14.80
2010,10,19,13,03,14.90
2010,10,19,13,04,14.90
2010,10,19,13,05,14.90
2010,10,19,13,06,14.90
2010,10,19,13,07,14.90
2010,10,19,13,08,14.90
2010,10,19,13,09,15.00
2010,10,19,13,10,15.00
2010,10,19,13,11,15.00
2010,10,19,13,12,15.00
2010,10,19,13,13,15.00
2010,10,19,13,14,15.00
2010,10,19,13,15,15.00
2010,10,19,13,16,15.00
2010,10,19,13,17,15.00
2010,10,19,13,18,15.00
2010,10,19,13,19,15.00
2010,10,19,13,20,15.00
2010,10,19,13,21,15.00
2010,10,19,13,22,15.00
2010,10,19,13,23,15.00
2010,10,19,13,24,15.00
2010,10,19,13,25,15.00
2010,10,19,13,26,15.00
2010,10,19,13,27,15.00
2010,10,19,13,28,15.00
2010,10,19,13,29,15.00
2010,10,19,13,30,15.00
2010,10,19,13,31,15.00
2010,10,19,13,32,15.00
2010,10,19,13,33,15.00
2010,10,19,13,34,15.00
2010,10,19,13,35,15.10
2010,10,19,13,36,15.10
2010,10,19,13,37,15.10
2010,10,19,13,38,15.10
2010,10,19,13,39,15.20
2010,10,19,13,40,15.10
2010,10,19,13,41,15.10
2010,10,19,13,42,15.10
2010,10,19,13,43,15.10
2010,10,19,13,44,15.10
2010,10,19,13,45,15.10
2010,10,19,13,46,15.10
2010,10,19,13,47,15.20
2010,10,19,13,48,15.10
2010,10,19,13,49,15.20
2010,10,19,13,50,15.20
2010,10,19,13,51,15.20
2010,10,19,13,52,15.20
2010,10,19,13,53,15.20
2010,10,19,13,54,15.20
2010,10,19,13,55,15.20
2010,10,19,13,56,15.30
2010,10,19,13,57,15.30
2010,10,19,13,58,15.30
2010,10,19,13,59,15.30
2010,10,19,14,00,15.30
2010,10,19,14,01,15.40
2010,10,19,14,02,15.40
2010,10,19,14,03,15.40
2010,10,19,14,04,15.40
2010,10,19,14,05,15.40
2010,10,19,14,06,15.40
2010,10,19,14,07,15.40
2010,10,19,14,08,15.40
2010,10,19,14,09,15.40
2010,10,19,14,10,15.40
2010,10,19,14,11,15.40
2010,10,19,14,12,15.40
2010,10,19,14,13,15.40
2010,10,19,14,14,15.40
2010,10,19,14,15,15.50
2010,10,19,14,16,15.50
2010,10,19,14,17,15.50
2010,10,19,14,18,15.60
2010,10,19,14,19,15.60
2010,10,19,14,20,15.60
2010,10,19,14,21,15.60
2010,10,19,14,22,15.70
2010,10,19,14,23,15.70
2010,10,19,14,24,15.70
2010,10,19,14,25,15.70
2010,10,19,14,26,15.70
2010,10,19,14,27,15.70
2010,10,19,14,28,15.70
2010,10,19,14,29,15.80
2010,10,19,14,30,15.80
2010,10,19,14,31,15.80
2010,10,19,14,32,15.80
2010,10,19,14,33,15.80
2010,10,19,14,34,15.80
2010,10,19,14,35,15.80
2010,10,19,14,36,15.90
2010,10,19,14,37,15.90
2010,10,19,14,38,15.90
2010,10,19,14,39,15.90
2010,10,19,14,40,15.90
2010,10,19,14,41,15.90
2010,10,19,14,42,15.90
2010,10,19,14,43,15.90
2010,10,19,14,44,15.90
2010,10,19,14,45,15.90
2010,10,19,14,46,15.90
2010,10,19,14,47,15.90
2010,10,19,14,48,15.90
2010,10,19,14,49,15.90
2010,10,19,14,50,15.90
2010,10,19,14,51,15.90
2010,10,19,14,52,15.90
2010,10,19,14,53,15.90
2010,10,19,14,54,15.90
2010,10,19,14,55,15.90
2010,10,19,14,56,15.90
2010,10,19,14,57,15.90
2010,10,19,14,58,15.90
2010,10,19,14,59,15.90
2010,10,19,15,00,15.90
2010,10,19,15,01,15.90
2010,10,19,15,02,15.90
2010,10,19,15,03,16.00
2010,10,19,15,04,16.00
2010,10,19,15,05,16.00
2010,10,19,15,06,16.00
2010,10,19,15,07,16.10
2010,10,19,15,08,16.10
2010,10,19,15,09,16.10
2010,10,19,15,10,16.10
2010,10,19,15,11,16.10
2010,10,19,15,12,16.10
2010,10,19,15,13,16.10
2010,10,19,15,14,16.10
2010,10,19,15,15,16.10
2010,10,19,15,16,16.10
2010,10,19,15,17,16.10
2010,10,19,15,18,16.10
2010,10,19,15,19,16.10
2010,10,19,15,20,16.10
2010,10,19,15,21,16.10
2010,10,19,15,22,16.00
2010,10,19,15,23,16.00
2010,10,19,15,24,16.00
2010,10,19,15,25,16.00
2010,10,19,15,26,16.00
2010,10,19,15,27,16.00
2010,10,19,15,28,16.00
2010,10,19,15,29,16.00
2010,10,19,15,30,15.90
2010,10,19,15,31,16.00
2010,10,19,15,32,16.00
2010,10,19,15,33,16.00
2010,10,19,15,34,16.00
2010,10,19,15,35,16.00
2010,10,19,15,36,16.00
2010,10,19,15,37,16.00
2010,10,19,15,38,16.00
2010,10,19,15,39,16.00
2010,10,19,15,40,16.00
2010,10,19,15,41,16.00
2010,10,19,15,42,16.00
2010,10,19,15,43,16.00
2010,10,19,15,44,16.00
2010,10,19,15,45,16.00
2010,10,19,15,46,16.00
2010,10,19,15,47,15.90
2010,10,19,15,48,15.90
2010,10,19,15,49,15.90
2010,10,19,15,50,15.90
2010,10,19,15,51,15.90
2010,10,19,15,52,15.90
2010,10,19,15,53,15.90
2010,10,19,15,54,15.90
2010,10,19,15,55,15.90
2010,10,19,15,56,15.90
2010,10,19,15,57,15.90
2010,10,19,15,58,15.90
2010,10,19,15,59,15.80
2010,10,19,16,00,15.80
2010,10,19,16,01,15.80
2010,10,19,16,02,15.80
2010,10,19,16,03,15.80
2010,10,19,16,04,15.80
2010,10,19,16,05,15.80
2010,10,19,16,06,15.80
2010,10,19,16,07,15.80
2010,10,19,16,08,15.80
2010,10,19,16,09,15.80
2010,10,19,16,10,15.80
2010,10,19,16,11,15.80
2010,10,19,16,12,15.80
2010,10,19,16,13,15.80
2010,10,19,16,14,15.80
2010,10,19,16,15,15.70
2010,10,19,16,16,15.70
2010,10,19,16,17,15.70
2010,10,19,16,18,15.70
2010,10,19,16,19,15.70
2010,10,19,16,20,15.60
2010,10,19,16,21,15.60
2010,10,19,16,22,15.60
2010,10,19,16,23,15.60
2010,10,19,16,24,15.50
2010,10,19,16,25,15.50
2010,10,19,16,26,15.40
2010,10,19,16,27,15.40
2010,10,19,16,28,15.30
2010,10,19,16,29,15.30
2010,10,19,16,30,15.20
2010,10,19,16,31,15.20
2010,10,19,16,32,15.20
2010,10,19,16,33,15.10
2010,10,19,16,34,15.10
2010,10,19,16,35,15.00
2010,10,19,16,36,15.00
2010,10,19,16,37,15.00
2010,10,19,16,38,15.00
2010,10,19,16,39,15.00
2010,10,19,16,40,15.00
2010,10,19,16,41,15.00
2010,10,19,16,42,15.00
2010,10,19,16,43,14.90
2010,10,19,16,44,14.80
2010,10,19,16,45,14.80
2010,10,19,16,46,14.70
2010,10,19,16,47,14.60
2010,10,19,16,48,14.60
2010,10,19,16,49,14.50
2010,10,19,16,50,14.50
2010,10,19,16,51,14.40
2010,10,19,16,52,14.30
2010,10,19,16,53,14.30
2010,10,19,16,54,14.20
2010,10,19,16,55,14.20
2010,10,19,16,56,14.10
2010,10,19,16,57,14.10
2010,10,19,16,58,14.00
2010,10,19,16,59,14.00
2010,10,19,17,00,13.90
2010,10,19,17,01,13.80
2010,10,19,17,02,13.80
2010,10,19,17,03,13.80
2010,10,19,17,04,13.70
2010,10,19,17,05,13.70
2010,10,19,17,06,13.60
2010,10,19,17,07,13.60
2010,10,19,17,08,13.50
2010,10,19,17,09,13.50
2010,10,19,17,10,13.40
2010,10,19,17,11,13.40
2010,10,19,17,12,13.40
2010,10,19,17,13,13.30
2010,10,19,17,14,13.30
2010,10,19,17,15,13.30
2010,10,19,17,16,13.30
2010,10,19,17,17,13.20
2010,10,19,17,18,13.20
2010,10,19,17,19,13.20
2010,10,19,17,20,13.10
2010,10,19,17,21,13.10
2010,10,19,17,22,13.10
2010,10,19,17,23,13.00
2010,10,19,17,24,13.00
2010,10,19,17,25,12.90
2010,10,19,17,26,12.90
2010,10,19,17,27,12.90
2010,10,19,17,28,12.90
2010,10,19,17,29,12.80
2010,10,19,17,30,12.80
2010,10,19,17,31,12.80
2010,10,19,17,32,12.70
2010,10,19,17,33,12.70
2010,10,19,17,34,12.70
2010,10,19,17,35,12.60
2010,10,19,17,36,12.60
2010,10,19,17,37,12.60
2010,10,19,17,38,12.50
2010,10,19,17,39,12.50
2010,10,19,17,40,12.40
2010,10,19,17,41,12.40
2010,10,19,17,42,12.40
2010,10,19,17,43,12.40
2010,10,19,17,44,12.30
2010,10,19,17,45,12.30
2010,10,19,17,46,12.30
2010,10,19,17,47,12.30